Weather in Tlumach

Ukraine / Ivano-Frankovsk District     48°51′11″N   25°00′47″E
temp.,
°C
wind,
m/s
gust,
m/s
humid.,
%
clouds,
%
prec.,
mm/h
press.,
hPa
HPBL,
m
27 january, thu
thu2723:00−2sw3698100 0.7 1023215
02:00−1w51396100 2.0 1022676
05:00−2w5128291 0.4 1022397
08:00−2w41082100 0.4 1022400
11:000wsw388189 0.0 1021414
14:00+1sw2493100 0.0 1019154
17:00−1s1190100 0.0 101711
20:00−2sw238898 0.0 101642
28 january, fri
fri2823:00−3ssw2388100 0.0 101552
02:00−2sw2587100 0.0 101497
05:00−3sw2388100 0.0 101366
08:00−4sw268695 0.0 101389
11:00+2wsw6137024 0.0 1012516
14:00+3w81569100 0.0 1010666
17:00+1wnw91697100 0.5 10131134
20:000wnw10178591 1.1 10161095
29 january, sat
sat2923:00−1wnw10178579 0.0 1018962
02:00−1nw101587100 0.1 10201008
05:00−2wnw91491100 0.2 1022979
08:00−3wnw8148588 0.3 1024785
11:00−2wnw8118049 0.0 10251073
14:00−1wnw61070100 0.1 1023935
17:00−3w1183100 0.0 102210
20:00−4ssw3784100 0.0 1020138
30 january, sun
sun3023:00−4s3580100 0.0 1017108
02:00−1sw3775100 0.0 1012131
05:00+1sw51274100 0.4 1008349
08:00+2wsw8176319 0.4 1006459
11:00+4wsw7136719 0.0 1004437
14:00+4w10186364 0.1 10031378
17:00+2w122467100 0.1 10021486
20:00+3wnw132569100 0.3 10021701
31 january, mon
mon3123:00+2wnw132374100 0.0 10051592
02:00+1wnw132276100 0.1 10071564
05:00−1wnw12217299 0.1 10101547
08:00−2nw102086100 0.3 10131655
11:000wnw1017645 0.2 10151949
14:00+1wnw914615 0.2 10161738
17:00−1wnw713635 0.0 1016690
20:00−2wnw5137127 0.0 1017534